FW6650 Weather Reports


Display with metric or nautical units.
time (UTC)temp
F
wind
direction
speed
MPH
gust
MPH
rain 1hr
in
rain 24hr
in
rain mn
in
humidity
%
barometer
mb
20260508065027 66 251 3.0 10.0 0.00 0.00 0.00 40 1018.3
20260508064600 66 246 6.0 10.0 0.00 0.00 0.00 41 1018.3
20260508064027 66 244 4.0 11.0 0.00 0.00 0.00 40 1018.3
20260508063527 66 213 3.0 11.0 0.00 0.00 0.00 40 1018.1
20260508063036 66 260 6.0 11.0 0.00 0.00 0.00 39 1018.1
20260508062527 66 227 5.0 9.0 0.00 0.00 0.00 39 1018.1
20260508062026 66 264 5.0 9.0 0.00 0.00 0.00 39 1018.0
20260508061547 66 253 4.0 9.0 0.00 0.00 0.00 40 1018.0
20260508061026 66 259 4.0 9.0 0.00 0.00 0.00 42 1017.8
20260508060527 66 238 3.0 7.0 0.00 0.00 0.00 47 1017.8
20260508060042 66 196 2.0 4.0 0.00 0.00 0.00 50 1017.6
20260508055527 65 0 0.0 2.0 0.00 0.00 0.00 51 1017.3
20260508055027 65 0 0.0 2.0 0.00 0.00 0.00 52 1017.1
20260508054603 65 0 0.0 3.0 0.00 0.00 0.00 52 1017.0
20260508054026 65 0 0.0 3.0 0.00 0.00 0.00 51 1016.8
20260508053526 65 120 0.0 2.0 0.00 0.00 0.00 52 1016.8
20260508053033 65 120 0.0 2.0 0.00 0.00 0.00 50 1016.7
20260508052526 65 0 0.0 2.0 0.00 0.00 0.00 52 1016.5
20260508052026 65 120 0.0 2.0 0.00 0.00 0.00 51 1016.5
20260508051535 65 0 0.0 0.0 0.00 0.00 0.00 51 1016.3
20260508051026 65 0 0.0 1.0 0.00 0.00 0.00 52 1016.3
20260508050527 64 0 0.0 3.0 0.00 0.00 0.00 52 1016.3
20260508050037 64 120 0.0 3.0 0.00 0.00 0.00 51 1016.2
20260508045526 64 120 2.0 3.0 0.00 0.00 0.00 52 1016.4
20260508045026 63 119 1.0 4.0 0.00 0.00 0.00 53 1016.5
20260508044535 63 119 0.0 4.0 0.00 0.00 0.00 54 1016.5
20260508044027 63 119 2.0 4.0 0.00 0.00 0.00 53 1016.3
20260508043526 63 102 1.0 3.0 0.00 0.00 0.00 54 1016.2
20260508043044 63 101 0.0 3.0 0.00 0.00 0.00 54 1016.1
20260508042529 63 0 0.0 4.0 0.00 0.00 0.00 55 1015.9
20260508042026 64 0 1.0 4.0 0.00 0.00 0.00 54 1015.9
20260508041537 63 81 1.0 3.0 0.00 0.00 0.00 54 1015.7
20260508041027 63 0 0.0 2.0 0.00 0.00 0.00 55 1015.7
20260508040528 63 79 0.0 4.0 0.00 0.00 0.00 54 1015.8
20260508040042 63 80 0.0 4.0 0.00 0.00 0.00 55 1015.4
20260508035530 63 78 1.0 3.0 0.00 0.00 0.00 55 1015.4
20260508035026 63 0 1.0 2.0 0.00 0.00 0.00 55 1015.4
20260508034536 63 79 0.0 2.0 0.00 0.00 0.00 55 1015.4
20260508034026 63 0 0.0 3.0 0.00 0.00 0.00 55 1015.4
20260508033526 63 80 1.0 3.0 0.00 0.00 0.00 54 1015.3
20260508033035 63 79 0.0 2.0 0.00 0.00 0.00 56 1015.4
20260508032527 63 0 0.0 3.0 0.00 0.00 0.00 55 1015.5
20260508032025 63 0 0.0 4.0 0.00 0.00 0.00 56 1015.4
20260508031537 63 78 2.0 4.0 0.00 0.00 0.00 55 1015.5
20260508031026 63 38 2.0 3.0 0.00 0.00 0.00 58 1015.2
20260508030527 63 34 1.0 2.0 0.00 0.00 0.00 58 1015.3
20260508030035 63 0 0.0 2.0 0.00 0.00 0.00 58 1015.4
20260508025527 63 36 0.0 3.0 0.00 0.00 0.00 58 1015.5
20260508025029 63 0 0.0 3.0 0.00 0.00 0.00 57 1015.3
20260508024535 63 35 0.0 3.0 0.00 0.00 0.00 58 1015.3
20260508024026 63 0 0.0 0.0 0.00 0.00 0.00 59 1015.5
20260508023527 63 0 0.0 0.0 0.00 0.00 0.00 61 1015.6
20260508023035 63 0 0.0 2.0 0.00 0.00 0.00 60 1015.6
20260508022526 63 0 0.0 3.0 0.00 0.00 0.00 60 1015.5
20260508022026 63 332 1.0 3.0 0.00 0.00 0.00 61 1015.6
20260508021542 63 330 0.0 2.0 0.00 0.00 0.00 62 1015.6
20260508021030 63 0 0.0 1.0 0.00 0.00 0.00 62 1015.5
20260508020526 63 0 0.0 1.0 0.00 0.00 0.00 62 1015.5
20260508020037 63 0 0.0 3.0 0.00 0.00 0.00 62 1015.5
20260508015527 63 329 0.0 3.0 0.00 0.00 0.00 62 1015.5
20260508015028 63 329 1.0 3.0 0.00 0.00 0.00 62 1015.5
20260508014533 63 0 0.0 2.0 0.00 0.00 0.00 62 1015.6
20260508014026 63 0 0.0 2.0 0.00 0.00 0.00 62 1015.7
20260508013526 63 325 1.0 2.0 0.00 0.00 0.00 62 1015.6
20260508013033 63 325 0.0 2.0 0.00 0.00 0.00 62 1015.7
20260508012526 63 0 0.0 1.0 0.00 0.00 0.00 62 1015.8
20260508012026 63 0 0.0 1.0 0.00 0.00 0.00 62 1015.8
20260508011543 63 0 0.0 0.0 0.00 0.00 0.00 62 1016.0
20260508011026 63 0 0.0 1.0 0.00 0.00 0.00 62 1016.0
20260508010526 63 0 0.0 1.0 0.00 0.00 0.00 61 1016.0
20260508010041 63 0 0.0 0.0 0.00 0.00 0.00 62 1016.1
20260508005526 63 0 0.0 0.0 0.00 0.00 0.00 62 1016.1
20260508005026 63 0 0.0 2.0 0.00 0.00 0.00 62 1016.1
20260508004540 63 0 0.0 2.0 0.00 0.00 0.00 62 1016.1
20260508004026 63 325 0.0 3.0 0.00 0.00 0.00 62 1016.1
20260508003526 63 0 0.0 3.0 0.00 0.00 0.00 62 1016.1
20260508003042 63 325 0.0 3.0 0.00 0.00 0.00 62 1016.1
20260508002526 63 325 1.0 3.0 0.00 0.00 0.00 62 1016.2
20260508002026 63 0 0.0 2.0 0.00 0.00 0.00 61 1016.1
20260508001537 63 322 0.0 3.0 0.00 0.00 0.00 61 1016.2
20260508001026 63 322 1.0 3.0 0.00 0.00 0.00 61 1016.1
20260508000530 63 0 0.0 3.0 0.00 0.00 0.00 60 1016.2
20260508000053 64 0 0.0 3.0 0.00 0.00 0.00 59 1016.3
20260507235526 64 321 1.0 3.0 0.00 0.00 0.00 59 1016.3
20260507235026 64 320 0.0 2.0 0.00 0.00 0.00 58 1016.3
20260507234543 64 0 0.0 0.0 0.00 0.00 0.00 58 1016.5
20260507234027 64 0 0.0 1.0 0.00 0.00 0.00 57 1016.7
20260507233529 64 0 0.0 2.0 0.00 0.00 0.00 56 1016.8
20260507233037 64 0 0.0 2.0 0.00 0.00 0.00 56 1016.7
20260507232524 64 0 0.0 3.0 0.00 0.00 0.00 54 1016.7
20260507232025 64 0 1.0 3.0 0.00 0.00 0.00 54 1016.8
20260507231537 64 0 0.0 0.0 0.00 0.00 0.00 52 1016.7
20260507231026 64 0 0.0 0.0 0.00 0.00 0.00 51 1016.6
20260507230528 64 0 0.0 0.0 0.00 0.00 0.00 51 1016.6
20260507230038 64 0 0.0 0.0 0.00 0.00 0.00 51 1016.8
20260507225526 64 0 0.0 0.0 0.00 0.00 0.00 51 1016.8
20260507225026 64 0 0.0 2.0 0.00 0.00 0.00 52 1016.9
20260507224535 64 0 0.0 2.0 0.00 0.00 0.00 51 1017.0
20260507224030 64 319 0.0 3.0 0.00 0.00 0.00 52 1016.9
20260507223529 64 0 0.0 3.0 0.00 0.00 0.00 52 1017.0
20260507223040 64 319 0.0 3.0 0.00 0.00 0.00 52 1017.0
20260507222526 64 319 1.0 3.0 0.00 0.00 0.00 52 1017.0
20260507222025 64 313 1.0 4.0 0.00 0.00 0.00 52 1017.0
20260507221534 65 313 2.0 4.0 0.00 0.00 0.00 51 1017.1
20260507221025 65 0 0.0 2.0 0.00 0.00 0.00 52 1017.1
20260507220527 65 0 0.0 3.0 0.00 0.00 0.00 52 1017.2
20260507220033 65 312 0.0 3.0 0.00 0.00 0.00 52 1017.2
20260507215526 65 311 0.0 2.0 0.00 0.00 0.00 51 1017.3
20260507215025 65 0 0.0 2.0 0.00 0.00 0.00 51 1017.4
20260507214539 65 0 0.0 3.0 0.00 0.00 0.00 51 1017.5
20260507214026 65 0 1.0 3.0 0.00 0.00 0.00 51 1017.5
20260507213529 65 311 0.0 2.0 0.00 0.00 0.00 51 1017.4
20260507213040 65 0 1.0 2.0 0.00 0.00 0.00 49 1017.4
20260507212526 65 0 0.0 1.0 0.00 0.00 0.00 51 1017.6
20260507212028 65 0 0.0 1.0 0.00 0.00 0.00 51 1017.7
20260507211547 65 0 0.0 1.0 0.00 0.00 0.00 51 1017.6
20260507211025 65 0 0.0 1.0 0.00 0.00 0.00 50 1017.5
20260507210526 65 0 0.0 1.0 0.00 0.00 0.00 49 1017.6
20260507210038 65 0 0.0 0.0 0.00 0.00 0.00 49 1017.5
20260507205523 65 0 0.0 0.0 0.00 0.00 0.00 49 1017.5
20260507205022 65 0 0.0 1.0 0.00 0.00 0.00 49 1017.5
20260507204535 65 0 0.0 2.0 0.00 0.00 0.00 49 1017.5
20260507204026 65 311 0.0 2.0 0.00 0.00 0.00 49 1017.6
20260507203526 65 313 0.0 2.0 0.00 0.00 0.00 49 1017.6
20260507203036 65 0 0.0 2.0 0.00 0.00 0.00 49 1017.6
20260507202526 65 0 0.0 2.0 0.00 0.00 0.00 49 1017.5
20260507202026 65 313 0.0 2.0 0.00 0.00 0.00 49 1017.6
20260507201535 65 0 0.0 3.0 0.00 0.00 0.00 48 1017.6
20260507201026 65 314 0.0 3.0 0.00 0.00 0.00 48 1017.5
20260507200525 65 0 0.0 2.0 0.00 0.00 0.00 48 1017.3
20260507200041 65 315 0.0 1.0 0.00 0.00 0.00 48 1017.4
20260507195526 65 28 0.0 3.0 0.00 0.00 0.00 48 1017.3
20260507195026 65 0 0.0 4.0 0.00 0.00 0.00 49 1017.4
20260507194539 65 28 1.0 4.0 0.00 0.00 0.00 48 1017.3
20260507194025 65 27 2.0 4.0 0.00 0.00 0.00 47 1017.2
20260507193522 66 360 1.0 3.0 0.00 0.00 0.00 47 1017.2
20260507193037 66 0 0.0 0.0 0.00 0.00 0.00 48 1017.2
20260507192523 66 0 0.0 0.0 0.00 0.00 0.00 48 1017.2
20260507192022 66 0 0.0 1.0 0.00 0.00 0.00 48 1017.2
20260507191533 66 0 0.0 3.0 0.00 0.00 0.00 47 1017.2
20260507191025 66 360 0.0 3.0 0.00 0.00 0.00 47 1017.2
20260507190524 66 360 1.0 4.0 0.00 0.00 0.00 46 1017.1
20260507190038 66 360 2.0 4.0 0.00 0.00 0.00 46 1017.2
20260507185527 66 360 1.0 4.0 0.00 0.00 0.00 47 1017.3
20260507185027 66 360 1.0 4.0 0.00 0.00 0.00 49 1017.4
20260507184541 66 360 2.0 4.0 0.00 0.00 0.00 49 1017.3
20260507184029 67 13 1.0 3.0 0.00 0.00 0.00 48 1017.2
20260507183525 67 0 0.0 2.0 0.00 0.00 0.00 48 1017.1
20260507183036 67 15 0.0 3.0 0.00 0.00 0.00 48 1017.0
20260507182523 67 15 0.0 3.0 0.00 0.00 0.00 47 1017.0
20260507182026 67 0 0.0 3.0 0.00 0.00 0.00 47 1017.1
20260507181533 67 0 1.0 4.0 0.00 0.00 0.00 48 1017.0
20260507181026 67 0 0.0 4.0 0.00 0.00 0.00 48 1017.0
20260507180528 67 13 1.0 4.0 0.00 0.00 0.00 48 1017.0
20260507180033 67 294 0.0 2.0 0.00 0.00 0.00 48 1017.0
20260507175527 67 0 0.0 4.0 0.00 0.00 0.00 47 1017.1
20260507175027 67 293 1.0 4.0 0.00 0.00 0.00 49 1017.0
20260507174546 67 282 1.0 3.0 0.00 0.00 0.00 49 1016.8
20260507174027 67 281 2.0 4.0 0.00 0.00 0.00 49 1016.8
20260507173529 67 0 0.0 4.0 0.00 0.00 0.00 50 1017.0
20260507173040 67 278 2.0 4.0 0.00 0.00 0.00 50 1016.9
20260507172526 67 277 1.0 7.0 0.00 0.00 0.00 49 1016.8
20260507172027 67 0 2.0 7.0 0.00 0.00 0.00 49 1016.9
20260507171550 67 268 3.0 8.0 0.00 0.00 0.00 50 1016.8
20260507171028 68 278 4.0 8.0 0.00 0.00 0.00 50 1016.7
20260507170528 68 254 3.0 6.0 0.00 0.00 0.00 50 1016.6
20260507170035 69 229 3.0 6.0 0.00 0.00 0.00 48 1016.3
20260507165528 69 109 0.0 8.0 0.00 0.00 0.00 47 1016.2
20260507165027 68 109 3.0 12.0 0.00 0.00 0.00 48 1016.1
20260507164538 68 69 5.0 12.0 0.00 0.00 0.00 51 1016.0
20260507164028 68 85 5.0 12.0 0.00 0.00 0.00 51 1016.2
20260507163528 69 92 4.0 11.0 0.00 0.00 0.00 49 1016.3
20260507163033 69 85 3.0 8.0 0.00 0.00 0.00 47 1016.3
20260507162527 69 360 3.0 8.0 0.00 0.00 0.00 45 1016.5
20260507162027 70 360 2.0 8.0 0.00 0.00 0.00 43 1016.6
20260507161545 70 360 4.0 8.0 0.00 0.00 0.00 41 1016.5
20260507161028 71 360 1.0 3.0 0.00 0.00 0.00 36 1016.5
20260507160527 71 0 0.0 3.0 0.00 0.00 0.00 34 1016.5
20260507160059 72 360 0.0 4.0 0.00 0.00 0.00 29 1016.4
20260507155527 72 214 1.0 8.0 0.00 0.00 0.00 30 1016.5
20260507155028 72 0 2.0 10.0 0.00 0.00 0.00 29 1016.6
20260507154536 72 360 4.0 12.0 0.00 0.00 0.00 29 1016.6
20260507154028 73 247 4.0 12.0 0.00 0.00 0.00 29 1016.7
20260507153527 73 229 4.0 11.0 0.00 0.00 0.00 29 1016.6
20260507153036 73 267 7.0 12.0 0.00 0.00 0.00 30 1016.7
20260507152527 73 243 6.0 14.0 0.00 0.00 0.00 30 1016.8
20260507152028 73 215 7.0 14.0 0.00 0.00 0.00 30 1016.8
20260507151535 73 223 6.0 13.0 0.00 0.00 0.00 31 1016.7
20260507151027 73 249 7.0 13.0 0.00 0.00 0.00 30 1016.7
20260507150530 74 252 5.0 11.0 0.00 0.00 0.00 30 1016.7
20260507150039 73 254 6.0 13.0 0.00 0.00 0.00 30 1016.7
20260507145528 73 256 5.0 15.0 0.00 0.00 0.00 31 1016.6
20260507145031 73 233 6.0 15.0 0.00 0.00 0.00 30 1016.7
20260507144537 73 240 10.0 14.0 0.00 0.00 0.00 29 1016.8
20260507144028 74 252 6.0 14.0 0.00 0.00 0.00 30 1016.6
20260507143528 74 241 6.0 13.0 0.00 0.00 0.00 29 1016.7
20260507143042 74 263 7.0 12.0 0.00 0.00 0.00 31 1016.6
20260507142528 74 243 6.0 14.0 0.00 0.00 0.00 31 1016.7
20260507142031 74 211 7.0 15.0 0.00 0.00 0.00 31 1016.8
20260507141542 74 248 7.0 15.0 0.00 0.00 0.00 30 1016.7
20260507141027 75 269 7.0 15.0 0.00 0.00 0.00 29 1016.6
20260507140527 75 265 6.0 17.0 0.00 0.00 0.00 29 1016.4
20260507140046 75 231 9.0 17.0 0.00 0.00 0.00 28 1016.2
20260507135528 76 262 4.0 16.0 0.00 0.00 0.00 28 1016.3
20260507135030 76 259 8.0 16.0 0.00 0.00 0.00 28 1016.2
20260507134536 76 261 5.0 13.0 0.00 0.00 0.00 29 1016.1
20260507134027 76 238 7.0 13.0 0.00 0.00 0.00 27 1016.1
20260507133527 76 257 6.0 11.0 0.00 0.00 0.00 26 1016.0
20260507133034 76 244 3.0 11.0 0.00 0.00 0.00 26 1016.1
20260507132527 76 253 4.0 11.0 0.00 0.00 0.00 26 1016.2
20260507132028 76 262 6.0 11.0 0.00 0.00 0.00 26 1016.0
20260507131605 76 235 4.0 11.0 0.00 0.00 0.00 24 1016.1
20260507131028 75 219 6.0 11.0 0.00 0.00 0.00 29 1016.3
20260507130528 75 266 5.0 11.0 0.00 0.00 0.00 30 1016.2
20260507130035 74 260 5.0 11.0 0.00 0.00 0.00 32 1016.4
20260507125528 74 252 5.0 12.0 0.00 0.00 0.00 32 1016.5
20260507125028 74 241 7.0 12.0 0.00 0.00 0.00 32 1016.6
20260507124550 74 259 5.0 12.0 0.00 0.00 0.00 32 1016.7
20260507124027 74 253 7.0 13.0 0.00 0.00 0.00 31 1016.7
20260507123527 74 272 7.0 13.0 0.00 0.00 0.00 29 1016.8
20260507123041 75 229 5.0 13.0 0.00 0.00 0.00 31 1016.7
20260507122527 75 224 5.0 13.0 0.00 0.00 0.00 31 1016.8
20260507122027 75 240 8.0 15.0 0.00 0.00 0.00 29 1016.9
20260507121536 76 223 8.0 15.0 0.00 0.00 0.00 27 1016.9
20260507121028 76 231 8.0 15.0 0.00 0.00 0.00 25 1017.0
20260507120529 77 213 7.0 14.0 0.00 0.00 0.00 26 1017.0
20260507120040 77 221 6.0 13.0 0.00 0.00 0.00 28 1016.8
20260507115627 77 254 5.0 14.0 0.00 0.00 0.00 25 1016.8
20260507115027 76 240 9.0 14.0 0.00 0.00 0.00 28 1016.8
20260507114539 76 265 8.0 15.0 0.00 0.00 0.00 29 1017.0
20260507114028 75 263 6.0 15.0 0.00 0.00 0.00 35 1017.0
20260507113528 75 243 9.0 15.0 0.00 0.00 0.00 33 1017.0
20260507113102 76 255 7.0 18.0 0.00 0.00 0.00 37 1017.0
20260507112530 76 205 10.0 18.0 0.00 0.00 0.00 34 1017.0
20260507112027 77 244 7.0 20.0 0.00 0.00 0.00 36 1017.1
20260507111536 77 220 6.0 20.0 0.00 0.00 0.00 31 1017.1
20260507111027 77 223 7.0 16.0 0.00 0.00 0.00 28 1017.1
20260507110527 75 268 8.0 16.0 0.00 0.00 0.00 38 1016.8
20260507110044 76 225 9.0 16.0 0.00 0.00 0.00 35 1017.0
20260507105527 77 236 8.0 15.0 0.00 0.00 0.00 32 1017.2
20260507105027 76 264 6.0 17.0 0.00 0.00 0.00 33 1017.1
20260507104556 75 246 11.0 17.0 0.00 0.00 0.00 33 1017.0
20260507104027 76 236 7.0 14.0 0.00 0.00 0.00 40 1016.9
20260507103526 75 240 7.0 13.0 0.00 0.00 0.00 43 1016.7
20260507103040 75 220 5.0 12.0 0.00 0.00 0.00 45 1016.6
20260507102530 75 247 5.0 12.0 0.00 0.00 0.00 47 1016.5
20260507102027 75 249 7.0 12.0 0.00 0.00 0.00 49 1016.6
20260507101536 75 269 4.0 12.0 0.00 0.00 0.00 51 1016.7
20260507101026 75 259 4.0 12.0 0.00 0.00 0.00 52 1016.7
20260507100526 74 250 6.0 12.0 0.00 0.00 0.00 53 1016.7
20260507100043 74 290 6.0 12.0 0.00 0.00 0.00 53 1016.8
20260507095527 75 217 4.0 11.0 0.00 0.00 0.00 53 1016.8
20260507095030 74 247 5.0 12.0 0.00 0.00 0.00 53 1016.8
20260507094537 74 277 5.0 12.0 0.00 0.00 0.00 53 1016.8
20260507094028 75 222 5.0 11.0 0.00 0.00 0.00 53 1016.7
20260507093527 74 218 3.0 10.0 0.00 0.00 0.00 51 1016.8
20260507093038 75 213 5.0 10.0 0.00 0.00 0.00 48 1016.8
20260507092527 75 300 2.0 10.0 0.00 0.00 0.00 47 1016.7
20260507092027 74 231 4.0 10.0 0.00 0.00 0.00 48 1016.7
20260507091543 74 271 6.0 11.0 0.00 0.00 0.00 48 1016.8
20260507091027 74 244 6.0 11.0 0.00 0.00 0.00 47 1016.8
20260507090527 74 236 5.0 10.0 0.00 0.00 0.00 47 1016.6
20260507090040 74 253 2.0 6.0 0.00 0.00 0.00 45 1016.6
20260507085526 74 196 2.0 6.0 0.00 0.00 0.00 45 1016.7
20260507085027 73 198 0.0 6.0 0.00 0.00 0.00 47 1016.7
20260507084549 74 216 2.0 6.0 0.00 0.00 0.00 46 1016.8
20260507084027 73 238 1.0 5.0 0.00 0.00 0.00 47 1016.8
20260507083527 73 220 1.0 5.0 0.00 0.00 0.00 46 1016.7
20260507083036 72 248 2.0 6.0 0.00 0.00 0.00 47 1016.7
20260507082528 73 281 1.0 6.0 0.00 0.00 0.00 47 1016.7
20260507082027 73 259 1.0 9.0 0.00 0.00 0.00 47 1016.7
20260507081539 72 279 3.0 9.0 0.00 0.00 0.00 48 1016.7
20260507081027 72 272 5.0 9.0 0.00 0.00 0.00 48 1016.7
20260507080526 72 261 3.0 7.0 0.00 0.00 0.00 48 1016.8
20260507080040 72 222 3.0 6.0 0.00 0.00 0.00 47 1016.7
20260507075527 72 232 1.0 7.0 0.00 0.00 0.00 47 1016.7
20260507075027 71 241 3.0 7.0 0.00 0.00 0.00 46 1016.7
20260507074541 72 0 0.0 4.0 0.00 0.00 0.00 46 1016.6
20260507074026 71 262 1.0 4.0 0.00 0.00 0.00 47 1016.6
20260507073526 71 265 1.0 6.0 0.00 0.00 0.00 48 1016.6
20260507073037 70 265 2.0 6.0 0.00 0.00 0.00 48 1016.4
20260507072527 70 262 1.0 4.0 0.00 0.00 0.00 49 1016.4
20260507072026 70 286 1.0 4.0 0.00 0.00 0.00 50 1016.4
20260507071537 71 280 0.0 4.0 0.00 0.00 0.00 48 1016.5
20260507071027 70 276 1.0 4.0 0.00 0.00 0.00 51 1016.7
20260507070527 69 0 0.0 4.0 0.00 0.00 0.00 51 1016.6
20260507070033 69 268 1.0 6.0 0.00 0.00 0.00 51 1016.6
20260507065527 69 269 3.0 6.0 0.00 0.00 0.00 51 1016.7